Weather in Teshilovo

Russia / Tver Oblast     56°34′25″N   36°26′50″E
temp.,
°C
wind,
m/s
gust,
m/s
humid.,
%
clouds,
%
prec.,
mm/h
press.,
hPa
HPBL,
m
20 january, thu
thu2000:00−4ssw51392100 0.1 1007469
03:00−2sw51392100 0.1 1006647
06:00−2sw51293100 0.0 1004620
09:00−2ssw51192100 0.1 1003547
12:00−1s51392100 0.0 1002581
15:00−1s51391100 0.0 1000734
18:00−2s61490100 0.0 998836
21:00−2s61390100 0.8 997890
21 january, fri
fri2100:00−3s51392100 0.1 998737
03:00−3s51289100 0.3 998600
06:00−3s4992100 0.0 997492
09:00−3sse4992100 0.1 997485
12:00−4se4995100 0.2 997443
15:00−4se3896100 1.1 996473
18:00−5se3893100 0.4 997328
21:00−8ese249797 0.4 99870
22 january, sat
sat2200:00−7ese3695100 0.0 999227
03:00−6ese379288 0.1 1001421
06:00−10e389885 0.0 1002174
09:00−11ene379781 0.1 1005151
12:00−7e3694100 0.1 1007306
15:00−5ene3695100 0.6 1010359
18:00−7e259790 0.3 1013125
21:00−10e269771 0.4 1016106
23 january, sun
sun2300:00−13ene259976 0.0 102061
03:00−15ene1110081 0.0 10229
06:00−17ene1110093 0.0 102523
09:00−19ene1110094 0.1 102810
12:00−12ne129596 0.0 1030129
15:00−10nne139587 0.1 1031171
18:00−16nne1110092 0.0 10349
21:00−19ene1110099 0.0 10359
24 january, mon
mon2400:00−20ene11100100 0.0 10369
03:00−21nnw11100100 0.0 103726
06:00−22ene00100100 0.0 10379
09:00−22nne11100100 0.0 10379
12:00−13ene019582 0.0 103690
15:00−10nne009414 0.0 103483
18:00−17s0010070 0.0 10349
21:00−19s1110089 0.0 103310